Weather History for KSMQ - October, 2012

Change the Weather History Date:

Wednesday, October 10, 2012

  Actual Average Record
Temperature  
Mean Temperature 60 °F -  
Max Temperature 68 °F 66 °F 90 °F (1939)
Min Temperature 53 °F 42 °F 30 °F (1943)
Degree Days  
Heating Degree Days 6    
Growing Degree Days 10 (Base 50)    
Moisture  
Dew Point 51 °F    
Average Humidity 84    
Maximum Humidity 100    
Minimum Humidity 48    
Precipitation  
Precipitation 0.37 in - - ()
Sea Level Pressure  
Sea Level Pressure 29.95 in    
Wind  
Wind Speed 2 mph (North)    
Max Wind Speed 8 mph    
Max Gust Speed 17 mph    
Visibility 6 miles    
Events Rain    
Averages and records for this station are not official NWS values.
T = Trace of Precipitation, MM = Missing Value Source: NWS Daily Summary

Daily Weather History Graph

Daily Weather History Graph

Search for Another Location

Airport or City:

Trip Planner

Search our weather history database for the weather conditions in past years. The results will help you decide how hot, cold, wet, or windy it might be!

Date:

Astronomy

Oct. 10, 2012 Rise Set
Actual Time 7:04 AM EDT 6:25 PM EDT
Civil Twilight 6:37 AM EDT 6:52 PM EDT
Nautical Twilight 6:05 AM EDT 7:24 PM EDT
Astronomical Twilight 5:34 AM EDT 7:56 PM EDT
Moon 1:37 AM EDT (10/10) 3:28 PM EDT (10/10)
Length of Visible Light 12h 15m
Length of Day
11h 20m
Waning Crescent, 27% of the Moon is Illuminated
Oct 10
Waning Crescent
Oct 15
New
Oct 21
First Quarter
Oct 29
Full
Nov 6
Last Quarter

Hourly Weather History & Observations

Time (EDT) Temp. Dew Point Humidity Pressure Visibility Wind Dir Wind Speed Gust Speed Precip Events Conditions
12:26 AM 55.4 °F 53.6 °F 94% 30.06 in 5.0 mi NNE 3.5 mph - 0.01 in Rain Light Rain
12:53 AM 55.0 °F 53.1 °F 93% 30.06 in 8.0 mi NNW 3.5 mph - 0.01 in   Overcast
1:32 AM 53.6 °F 53.6 °F 100% 30.04 in 2.5 mi Calm Calm - 0.02 in Rain Light Rain
1:41 AM 53.6 °F 53.6 °F 100% 30.05 in 4.0 mi Calm Calm - 0.02 in Rain Light Rain
1:53 AM 55.0 °F 53.1 °F 93% 30.04 in 5.0 mi NE 3.5 mph - 0.02 in   Overcast
2:05 AM 53.6 °F 53.6 °F 100% 30.03 in 4.0 mi Calm Calm - 0.00 in Rain Light Rain
2:12 AM 53.6 °F 53.6 °F 100% 30.03 in 5.0 mi Calm Calm - 0.00 in Rain Light Rain
2:50 AM 55.4 °F 53.6 °F 94% 30.02 in 2.5 mi Calm Calm - 0.02 in Rain Light Rain
2:53 AM 55.0 °F 53.1 °F 93% 30.02 in 3.0 mi North 3.5 mph - 0.02 in Rain Light Rain
3:07 AM 55.4 °F 53.6 °F 94% 30.01 in 7.0 mi Calm Calm - 0.00 in   Overcast
3:53 AM 55.0 °F 54.0 °F 96% 30.00 in 7.0 mi Calm Calm - 0.00 in   Overcast
4:53 AM 55.0 °F 53.1 °F 93% 29.99 in 2.0 mi Calm Calm - 0.02 in Rain Light Rain
5:25 AM 53.6 °F 53.6 °F 100% 29.98 in 4.0 mi Calm Calm - 0.03 in Rain Light Rain
5:53 AM 54.0 °F 53.1 °F 97% 29.97 in 5.0 mi NE 5.8 mph - 0.04 in Rain Light Rain
6:36 AM 53.6 °F 53.6 °F 100% 29.96 in 2.5 mi NNE 4.6 mph - N/A Rain Rain
6:53 AM 54.0 °F 52.0 °F 93% 29.96 in 2.0 mi NE 4.6 mph - 0.09 in Rain Light Rain
7:15 AM 53.6 °F 53.6 °F 100% 29.95 in 1.5 mi NNE 4.6 mph - N/A Rain Rain
7:28 AM 53.6 °F 53.6 °F 100% 29.96 in 3.0 mi NW 3.5 mph - 0.12 in Rain Light Rain
7:35 AM 53.6 °F 53.6 °F 100% 29.96 in 3.0 mi Calm Calm - 0.12 in Rain Light Rain
7:38 AM 53.6 °F 53.6 °F 100% 29.96 in 1.8 mi Calm Calm - 0.13 in Rain Light Rain
7:45 AM 53.6 °F 53.6 °F 100% 29.96 in 1.2 mi North - - 0.14 in Rain Light Rain
7:53 AM 54.0 °F 53.1 °F 97% 29.96 in 1.5 mi North - - 0.15 in Rain Light Rain
8:02 AM 53.6 °F 53.6 °F 100% 29.96 in 2.0 mi Calm Calm - 0.01 in Rain Light Rain
8:20 AM 53.6 °F 53.6 °F 100% 29.95 in 4.0 mi NNE 4.6 mph - 0.02 in Rain Light Rain
8:48 AM 55.4 °F 53.6 °F 94% 29.94 in 10.0 mi NNE 3.5 mph - 0.02 in   Overcast
8:53 AM 55.0 °F 53.1 °F 93% 29.95 in 10.0 mi Variable 4.6 mph - 0.02 in   Overcast
9:20 AM 55.4 °F 53.6 °F 94% 29.94 in 10.0 mi North 3.5 mph - N/A   Overcast
9:53 AM 57.0 °F 53.1 °F 87% 29.93 in 10.0 mi Calm Calm - N/A   Overcast
10:53 AM 57.9 °F 55.0 °F 90% 29.92 in 10.0 mi Calm Calm - N/A   Overcast
11:53 AM 62.1 °F 55.9 °F 80% 29.89 in 10.0 mi Calm Calm - N/A   Mostly Cloudy
12:15 PM 62.6 °F 55.4 °F 77% 29.88 in 10.0 mi NNW 5.8 mph - N/A   Overcast
12:46 PM 62.6 °F 55.4 °F 77% 29.87 in 10.0 mi Variable 3.5 mph - N/A   Overcast
12:53 PM 64.0 °F 55.0 °F 73% 29.87 in 10.0 mi Variable 4.6 mph - N/A   Overcast
1:53 PM 66.0 °F 52.0 °F 60% 29.84 in 10.0 mi West 8.1 mph - N/A   Mostly Cloudy
2:53 PM 64.9 °F 48.9 °F 56% 29.82 in 10.0 mi WNW 4.6 mph - N/A   Scattered Clouds
3:53 PM 66.0 °F 46.9 °F 50% 29.81 in 10.0 mi Variable 6.9 mph - N/A   Partly Cloudy
4:53 PM 64.9 °F 45.0 °F 48% 29.82 in 10.0 mi Variable 4.6 mph - N/A   Scattered Clouds
5:53 PM 62.1 °F 44.1 °F 52% 29.82 in 10.0 mi Calm Calm - N/A   Partly Cloudy
6:53 PM 57.0 °F 45.0 °F 64% 29.83 in 10.0 mi Calm Calm - N/A   Partly Cloudy
7:53 PM 57.9 °F 45.0 °F 62% 29.86 in 10.0 mi Calm Calm - N/A   Overcast
8:53 PM 60.1 °F 45.0 °F 57% 29.89 in 10.0 mi Variable 3.5 mph - N/A   Overcast
9:53 PM 57.0 °F 39.0 °F 51% 29.92 in 10.0 mi Variable 3.5 mph - N/A   Scattered Clouds
10:53 PM 55.0 °F 39.0 °F 55% 29.95 in 10.0 mi WNW 6.9 mph 17.3 mph N/A   Clear
11:53 PM 53.1 °F 39.0 °F 59% 29.98 in 10.0 mi Variable 5.8 mph - N/A   Partly Cloudy